Simultaneous Nadir Overpasses (SNOs) Predictions

Prediction of SNOs between GOES-16 and LANDSAT-8 Satellite Orbit:

Table of predicted SNOs for the next 14.0 days since TLE Epoch: 3/9/2024
Index Date Time (GOES-16) GOES-16 Lat,Lon LANDSAT-8 Lat,Lon Distance(km) Time Diff (sec)
1 03/10/2024 15:09:00 0.05, -75.22 -0.21, -73.92 147.42 80
2 03/11/2024 03:30:24 -0.05, -75.20 -0.90, -79.11 444.74 80
3 03/12/2024 14:54:08 0.05, -75.23 -0.83, -70.96 485.20 80
4 03/13/2024 03:18:12 -0.05, -75.22 -0.27, -76.15 106.86 80
5 03/15/2024 03:03:20 -0.05, -75.24 0.37, -73.20 231.47 80
6 03/15/2024 15:24:36 0.05, -75.26 0.68, -78.37 352.17 80
7 03/17/2024 15:12:23 0.04, -75.29 0.07, -75.40 13.26 80
8 03/19/2024 15:02:50 0.04, -75.32 -0.56, -72.44 326.44 80
9 03/20/2024 03:24:14 -0.04, -75.31 -0.53, -77.64 264.91 80
10 03/22/2024 03:09:21 -0.03, -75.35 0.12, -74.68 76.05 80
